Погода в Гонконге

Китай     22°17′03″N   114°09′02″E
темп.,
°C
ветер,
м/с
пор.,
м/с
влажн.,
%
обл.,
%
осадки,
мм/ч
давл.,
гПа
погр.,
м
23 апреля, пт
пт2323:00+24зюз56800 0.0 1009281
02:00+24з45830 0.0 1007274
05:00+24з34850 0.0 1007212
08:00+25з33800 0.0 1009152
11:00+26юз32730 0.0 1009360
14:00+26юз44746 0.0 1007450
17:00+26ююз55780 0.0 1006351
20:00+25ююз34801 0.0 1008166
24 апреля, сб
сб2423:00+25ююв23830 0.0 1010138
02:00+24юв33850 0.0 1009148
05:00+24в34882 0.0 1010184
08:00+24в568933 0.2 1012441
11:00+25в668662 0.3 1012561
14:00+25в548250 0.4 1011578
17:00+25вюв558251 0.0 1009485
20:00+24в458676 0.1 1011369
25 апреля, вс
вс2523:00+24в558776 0.1 1012288
02:00+24в558791 0.3 1011304
05:00+24в558775 0.2 1011343
08:00+24в348433 0.4 1013381
11:00+24всв6581100 0.3 1014502
14:00+24в668266 0.4 1012575
17:00+24в768352 0.1 1012595
20:00+23в888456 0.1 1013637
26 апреля, пн
пн2623:00+23в9108693 0.1 1015659
02:00+23в91084100 0.4 1014733
05:00+23в91084100 0.3 1013745
08:00+23в10118293 0.4 1014780
11:00+23всв10107898 0.1 1015870
14:00+23всв91079100 0.5 1014836
17:00+22всв8984100 2.9 1014661
20:00+22всв8984100 3.5 1014571
27 апреля, вт
вт2723:00+23всв7881100 0.0 1016661
02:00+22св8982100 0.0 1014709
05:00+22всв797990 0.0 1014544
08:00+23всв7981100 0.0 1016627
11:00+23всв788383 0.0 1016620
14:00+23всв568196 0.0 1015512
17:00+22всв5686100 0.0 1014434
20:00+23всв6787100 0.1 1015514